| time (UTC) | temp F | wind direction | speed MPH | gust MPH | rain 1hr in | rain 24hr in | rain mn in | humidity % | barometer mb |
| 20260503200402 | 0 | 219 | 4.0 | 6.0 | 0.00 | 0.00 | 0.00 | 1013.7 | |
| 20260503195859 | 0 | 231 | 6.0 | 8.0 | 0.00 | 0.00 | 0.00 | 1013.7 | |
| 20260503195356 | 0 | 157 | 6.0 | 8.0 | 0.00 | 0.00 | 0.00 | 1013.8 | |
| 20260503194853 | 0 | 282 | 3.0 | 5.0 | 0.00 | 0.00 | 0.00 | 1014.1 | |
| 20260503194349 | 0 | 163 | 4.0 | 7.0 | 0.00 | 0.00 | 0.00 | 1014.1 | |
| 20260503193845 | 0 | 231 | 3.0 | 5.0 | 0.00 | 0.00 | 0.00 | 1014.5 | |
| 20260503193341 | 0 | 243 | 5.0 | 6.0 | 0.00 | 0.00 | 0.00 | 1014.5 | |
| 20260503192837 | 0 | 181 | 3.0 | 5.0 | 0.00 | 0.00 | 0.00 | 1014.2 | |
| 20260503192333 | 0 | 237 | 4.0 | 5.0 | 0.00 | 0.00 | 0.00 | 1014.3 | |
| 20260503191830 | 0 | 228 | 4.0 | 5.0 | 0.00 | 0.00 | 0.00 | 1014.2 | |
| 20260503191327 | 0 | 249 | 5.0 | 9.0 | 0.00 | 0.00 | 0.00 | 1014.1 | |
| 20260503190823 | 0 | 106 | 4.0 | 6.0 | 0.00 | 0.00 | 0.00 | 1014.1 | |
| 20260503190321 | 0 | 238 | 8.0 | 10.0 | 0.00 | 0.00 | 0.00 | 1014.4 | |
| 20260503185818 | 0 | 222 | 5.0 | 8.0 | 0.00 | 0.00 | 0.00 | 1014.5 | |
| 20260503185313 | 0 | 273 | 5.0 | 8.0 | 0.00 | 0.00 | 0.00 | 1014.5 | |
| 20260503184808 | 0 | 220 | 6.0 | 7.0 | 0.00 | 0.00 | 0.00 | 1014.4 | |
| 20260503184304 | 0 | 245 | 4.0 | 6.0 | 0.00 | 0.00 | 0.00 | 1014.6 | |
| 20260503183800 | 0 | 235 | 5.0 | 7.0 | 0.00 | 0.00 | 0.00 | 1014.7 | |
| 20260503183258 | 0 | 209 | 2.0 | 2.0 | 0.00 | 0.00 | 0.00 | 1014.9 | |
| 20260503182755 | 0 | 246 | 3.0 | 3.0 | 0.00 | 0.00 | 0.00 | 1015.2 | |
| 20260503182254 | 0 | 234 | 9.0 | 13.0 | 0.00 | 0.00 | 0.00 | 1015.3 | |
| 20260503181750 | 0 | 175 | 3.0 | 5.0 | 0.00 | 0.00 | 0.00 | 1015.2 | |
| 20260503181247 | 0 | 212 | 7.0 | 8.0 | 0.00 | 0.00 | 0.00 | 1015.5 | |
| 20260503180744 | 0 | 249 | 4.0 | 6.0 | 0.00 | 0.00 | 0.00 | 1015.7 | |
| 20260503180242 | 0 | 157 | 4.0 | 6.0 | 0.00 | 0.00 | 0.00 | 1015.7 | |
| 20260503175738 | 0 | 199 | 5.0 | 7.0 | 0.00 | 0.00 | 0.00 | 1016.0 | |
| 20260503175236 | 0 | 277 | 4.0 | 5.0 | 0.00 | 0.00 | 0.00 | 1016.2 | |
| 20260503174732 | 0 | 250 | 7.0 | 9.0 | 0.00 | 0.00 | 0.00 | 1016.0 | |
| 20260503174231 | 0 | 196 | 5.0 | 7.0 | 0.00 | 0.00 | 0.00 | 1016.2 | |
| 20260503173730 | 0 | 255 | 6.0 | 7.0 | 0.00 | 0.00 | 0.00 | 1016.2 | |
| 20260503173227 | 0 | 222 | 4.0 | 6.0 | 0.00 | 0.00 | 0.00 | 1016.5 | |
| 20260503172724 | 0 | 243 | 4.0 | 5.0 | 0.00 | 0.00 | 0.00 | 1016.4 | |
| 20260503172221 | 0 | 241 | 8.0 | 9.0 | 0.00 | 0.00 | 0.00 | 1016.5 | |
| 20260503171717 | 0 | 246 | 7.0 | 8.0 | 0.00 | 0.00 | 0.00 | 1016.5 | |
| 20260503171215 | 0 | 194 | 5.0 | 8.0 | 0.00 | 0.00 | 0.00 | 1016.6 | |
| 20260503170711 | 0 | 227 | 5.0 | 7.0 | 0.00 | 0.00 | 0.00 | 1016.6 | |
| 20260503170208 | 0 | 241 | 8.0 | 9.0 | 0.00 | 0.00 | 0.00 | 1016.6 | |
| 20260503160130 | 0 | 218 | 3.0 | 3.0 | 0.00 | 0.00 | 0.00 | 1017.6 | |
| 20260503150600 | 0 | 223 | 4.0 | 6.0 | 0.00 | 0.00 | 0.00 | 1018.1 | |
| 20260503130949 | 0 | 150 | 5.0 | 6.0 | 0.00 | 0.00 | 0.00 | 1018.3 | |
| 20260503130447 | 0 | 222 | 5.0 | 6.0 | 0.00 | 0.00 | 0.00 | 1018.5 | |
| 20260503110344 | 0 | 172 | 0.0 | 0.0 | 0.00 | 0.00 | 0.00 | 1017.7 | |
| 20260503090235 | 0 | 171 | 0.0 | 0.0 | 0.00 | 0.00 | 0.00 | 1017.4 | |
| 20260503081202 | 0 | 169 | 0.0 | 0.0 | 0.00 | 0.00 | 0.00 | 1017.4 | |
| 20260503080658 | 0 | 168 | 0.0 | 0.0 | 0.00 | 0.00 | 0.00 | 1017.4 | |
| 20260503080155 | 0 | 171 | 0.0 | 0.0 | 0.00 | 0.00 | 0.00 | 1017.6 | |
| 20260503072632 | 0 | 172 | 0.0 | 0.0 | 0.00 | 0.00 | 0.00 | 1017.4 | |
| 20260503072129 | 0 | 171 | 0.0 | 0.0 | 0.00 | 0.00 | 0.00 | 1017.5 | |
| 20260503071625 | 0 | 171 | 0.0 | 0.0 | 0.00 | 0.00 | 0.00 | 1017.5 | |
| 20260503071122 | 0 | 171 | 0.0 | 0.0 | 0.00 | 0.00 | 0.00 | 1017.6 | |
| 20260503070619 | 0 | 172 | 0.0 | 0.0 | 0.00 | 0.00 | 0.00 | 1017.5 | |
| 20260503070117 | 0 | 172 | 0.0 | 0.0 | 0.00 | 0.00 | 0.00 | 1017.6 | |
| 20260503055038 | 0 | 177 | 0.0 | 0.0 | 0.00 | 0.00 | 0.00 | 1017.9 | |
| 20260503054533 | 0 | 177 | 0.0 | 0.0 | 0.00 | 0.00 | 0.00 | 1017.9 | |
| 20260503054031 | 0 | 177 | 0.0 | 0.0 | 0.00 | 0.00 | 0.00 | 1018.0 | |
| 20260503053529 | 0 | 178 | 0.0 | 0.0 | 0.00 | 0.00 | 0.00 | 1017.9 | |
| 20260503053026 | 0 | 177 | 0.0 | 0.0 | 0.00 | 0.00 | 0.00 | 1018.1 | |
| 20260503052523 | 0 | 177 | 0.0 | 0.0 | 0.00 | 0.00 | 0.00 | 1018.0 | |
| 20260503052019 | 0 | 177 | 0.0 | 0.0 | 0.00 | 0.00 | 0.00 | 1018.1 | |
| 20260503051515 | 0 | 177 | 0.0 | 0.0 | 0.00 | 0.00 | 0.00 | 1018.0 | |
| 20260503051013 | 0 | 172 | 0.0 | 0.0 | 0.00 | 0.00 | 0.00 | 1017.9 | |
| 20260503050508 | 0 | 172 | 0.0 | 0.0 | 0.00 | 0.00 | 0.00 | 1018.1 | |
| 20260503050006 | 0 | 172 | 0.0 | 0.0 | 0.00 | 0.00 | 0.00 | 1018.1 | |
| 20260503045503 | 0 | 172 | 0.0 | 0.0 | 0.00 | 0.00 | 0.00 | 1018.1 | |
| 20260503045000 | 0 | 172 | 0.0 | 0.0 | 0.00 | 0.00 | 0.00 | 1018.0 | |
| 20260503044457 | 0 | 172 | 0.0 | 0.0 | 0.00 | 0.00 | 0.00 | 1018.0 | |
| 20260503043954 | 0 | 172 | 0.0 | 0.0 | 0.00 | 0.00 | 0.00 | 1018.1 | |
| 20260503043450 | 0 | 172 | 0.0 | 0.0 | 0.00 | 0.00 | 0.00 | 1018.1 | |
| 20260503042947 | 0 | 172 | 0.0 | 0.0 | 0.00 | 0.00 | 0.00 | 1018.1 | |
| 20260503042444 | 0 | 172 | 0.0 | 0.0 | 0.00 | 0.00 | 0.00 | 1017.9 | |
| 20260503041940 | 0 | 172 | 0.0 | 0.0 | 0.00 | 0.00 | 0.00 | 1017.9 | |
| 20260503041437 | 0 | 172 | 0.0 | 0.0 | 0.00 | 0.00 | 0.00 | 1017.9 | |
| 20260503040935 | 0 | 172 | 0.0 | 0.0 | 0.00 | 0.00 | 0.00 | 1017.8 | |
| 20260503040432 | 0 | 172 | 0.0 | 0.0 | 0.00 | 0.00 | 0.00 | 1018.2 | |
| 20260503035929 | 0 | 172 | 0.0 | 0.0 | 0.00 | 0.00 | 0.00 | 1018.1 | |
| 20260503035426 | 0 | 172 | 0.0 | 0.0 | 0.00 | 0.00 | 0.00 | 1017.9 | |
| 20260503034923 | 0 | 172 | 0.0 | 0.0 | 0.00 | 0.00 | 0.00 | 1017.9 | |
| 20260503034421 | 0 | 172 | 0.0 | 0.0 | 0.00 | 0.00 | 0.00 | 1018.0 | |
| 20260503033918 | 0 | 172 | 0.0 | 0.0 | 0.00 | 0.00 | 0.00 | 1018.2 | |
| 20260503033415 | 0 | 172 | 0.0 | 0.0 | 0.00 | 0.00 | 0.00 | 1018.0 | |
| 20260503032913 | 0 | 172 | 0.0 | 0.0 | 0.00 | 0.00 | 0.00 | 1018.2 | |
| 20260503032412 | 0 | 172 | 0.0 | 0.0 | 0.00 | 0.00 | 0.00 | 1018.2 | |
| 20260503031909 | 0 | 172 | 0.0 | 0.0 | 0.00 | 0.00 | 0.00 | 1018.3 | |
| 20260503031406 | 0 | 172 | 0.0 | 0.0 | 0.00 | 0.00 | 0.00 | 1018.0 | |
| 20260503030903 | 0 | 172 | 0.0 | 0.0 | 0.00 | 0.00 | 0.00 | 1018.3 | |
| 20260503030359 | 0 | 172 | 0.0 | 0.0 | 0.00 | 0.00 | 0.00 | 1018.3 | |
| 20260503025855 | 0 | 172 | 0.0 | 0.0 | 0.00 | 0.00 | 0.00 | 1018.1 | |
| 20260503025353 | 0 | 172 | 0.0 | 0.0 | 0.00 | 0.00 | 0.00 | 1018.1 | |
| 20260503024850 | 0 | 171 | 0.0 | 0.0 | 0.00 | 0.00 | 0.00 | 1018.3 | |
| 20260503024347 | 0 | 171 | 0.0 | 0.0 | 0.00 | 0.00 | 0.00 | 1018.0 | |
| 20260503023844 | 0 | 172 | 0.0 | 0.0 | 0.00 | 0.00 | 0.00 | 1018.1 | |
| 20260503023341 | 0 | 172 | 0.0 | 0.0 | 0.00 | 0.00 | 0.00 | 1018.1 | |
| 20260503022837 | 0 | 172 | 0.0 | 0.0 | 0.00 | 0.00 | 0.00 | 1018.0 | |
| 20260503022332 | 0 | 172 | 0.0 | 0.0 | 0.00 | 0.00 | 0.00 | 1018.0 | |
| 20260503021829 | 0 | 172 | 0.0 | 0.0 | 0.00 | 0.00 | 0.00 | 1018.0 | |
| 20260503021325 | 0 | 170 | 0.0 | 0.0 | 0.00 | 0.00 | 0.00 | 1017.9 | |
| 20260503020822 | 0 | 172 | 0.0 | 0.0 | 0.00 | 0.00 | 0.00 | 1017.8 | |
| 20260503020320 | 0 | 172 | 0.0 | 0.0 | 0.00 | 0.00 | 0.00 | 1017.9 | |
| 20260503015816 | 0 | 170 | 0.0 | 0.0 | 0.00 | 0.00 | 0.00 | 1017.8 | |
| 20260503015314 | 0 | 173 | 0.0 | 0.0 | 0.00 | 0.00 | 0.00 | 1017.6 | |
| 20260503014809 | 0 | 171 | 0.0 | 0.0 | 0.00 | 0.00 | 0.00 | 1017.7 | |
| 20260503014307 | 0 | 168 | 0.0 | 0.0 | 0.00 | 0.00 | 0.00 | 1017.6 | |
| 20260503013804 | 0 | 177 | 0.0 | 0.0 | 0.00 | 0.00 | 0.00 | 1017.5 | |
| 20260503013302 | 0 | 178 | 0.0 | 0.0 | 0.00 | 0.00 | 0.00 | 1017.4 | |
| 20260503012759 | 0 | 178 | 0.0 | 0.0 | 0.00 | 0.00 | 0.00 | 1017.6 | |
| 20260503012256 | 0 | 178 | 0.0 | 0.0 | 0.00 | 0.00 | 0.00 | 1017.6 | |
| 20260503011753 | 0 | 173 | 0.0 | 0.0 | 0.00 | 0.00 | 0.00 | 1017.7 | |
| 20260503011249 | 0 | 173 | 0.0 | 0.0 | 0.00 | 0.00 | 0.00 | 1017.4 | |
| 20260503010746 | 0 | 170 | 0.0 | 0.0 | 0.00 | 0.00 | 0.00 | 1017.4 | |
| 20260503010243 | 0 | 169 | 0.0 | 0.0 | 0.00 | 0.00 | 0.00 | 1017.4 | |
| 20260503005740 | 0 | 177 | 0.0 | 0.0 | 0.00 | 0.00 | 0.00 | 1017.3 | |
| 20260503005237 | 0 | 172 | 0.0 | 0.0 | 0.00 | 0.00 | 0.00 | 1017.5 | |
| 20260503004733 | 0 | 163 | 0.0 | 0.0 | 0.00 | 0.00 | 0.00 | 1017.4 | |
| 20260503004232 | 0 | 186 | 0.0 | 0.0 | 0.00 | 0.00 | 0.00 | 1017.3 | |
| 20260503003729 | 0 | 203 | 0.0 | 0.0 | 0.00 | 0.00 | 0.00 | 1017.5 | |
| 20260503003226 | 0 | 151 | 1.0 | 2.0 | 0.00 | 0.00 | 0.00 | 1017.3 | |
| 20260503002722 | 0 | 210 | 3.0 | 3.0 | 0.00 | 0.00 | 0.00 | 1017.4 | |
| 20260503002219 | 0 | 158 | 1.0 | 1.0 | 0.00 | 0.00 | 0.00 | 1017.2 | |
| 20260503001715 | 0 | 205 | 0.0 | 1.0 | 0.00 | 0.00 | 0.00 | 1017.1 | |
| 20260503001212 | 0 | 263 | 2.0 | 3.0 | 0.00 | 0.00 | 0.00 | 1017.1 | |
| 20260503000710 | 0 | 169 | 0.0 | 1.0 | 0.00 | 0.00 | 0.00 | 1017.2 | |
| 20260503000207 | 0 | 199 | 2.0 | 2.0 | 0.00 | 0.00 | 0.00 | 1017.0 | |
| 20260502235704 | 0 | 210 | 1.0 | 1.0 | 0.00 | 0.00 | 0.00 | 1017.1 | |
| 20260502235202 | 0 | 179 | 1.0 | 2.0 | 0.00 | 0.00 | 0.00 | 1017.1 | |
| 20260502234657 | 0 | 178 | 1.0 | 2.0 | 0.00 | 0.00 | 0.00 | 1016.9 | |
| 20260502234155 | 0 | 233 | 1.0 | 3.0 | 0.00 | 0.00 | 0.00 | 1017.2 | |
| 20260502233651 | 0 | 184 | 2.0 | 2.0 | 0.00 | 0.00 | 0.00 | 1017.0 | |
| 20260502233148 | 0 | 175 | 0.0 | 0.0 | 0.00 | 0.00 | 0.00 | 1016.9 | |
| 20260502232643 | 0 | 147 | 0.0 | 0.0 | 0.00 | 0.00 | 0.00 | 1016.9 | |
| 20260502232141 | 0 | 217 | 1.0 | 1.0 | 0.00 | 0.00 | 0.00 | 1017.0 | |
| 20260502231637 | 0 | 246 | 5.0 | 6.0 | 0.00 | 0.00 | 0.00 | 1017.3 | |
| 20260502231135 | 0 | 15 | 2.0 | 3.0 | 0.00 | 0.00 | 0.00 | 1016.9 | |
| 20260502230634 | 0 | 195 | 1.0 | 1.0 | 0.00 | 0.00 | 0.00 | 1017.0 | |
| 20260502230132 | 0 | 176 | 1.0 | 1.0 | 0.00 | 0.00 | 0.00 | 1017.1 | |
| 20260502225627 | 0 | 254 | 2.0 | 3.0 | 0.00 | 0.00 | 0.00 | 1017.0 | |
| 20260502225125 | 0 | 239 | 2.0 | 3.0 | 0.00 | 0.00 | 0.00 | 1017.0 | |
| 20260502224621 | 0 | 205 | 1.0 | 1.0 | 0.00 | 0.00 | 0.00 | 1017.2 | |
| 20260502224117 | 0 | 41 | 2.0 | 3.0 | 0.00 | 0.00 | 0.00 | 1017.0 | |
| 20260502223615 | 0 | 99 | 1.0 | 2.0 | 0.00 | 0.00 | 0.00 | 1017.0 | |
| 20260502223114 | 0 | 242 | 6.0 | 7.0 | 0.00 | 0.00 | 0.00 | 1017.1 | |
| 20260502222611 | 0 | 155 | 1.0 | 1.0 | 0.00 | 0.00 | 0.00 | 1017.1 | |
| 20260502222107 | 0 | 251 | 3.0 | 3.0 | 0.00 | 0.00 | 0.00 | 1017.3 | |
| 20260502221602 | 0 | 115 | 5.0 | 6.0 | 0.00 | 0.00 | 0.00 | 1017.1 | |
| 20260502221100 | 0 | 216 | 3.0 | 3.0 | 0.00 | 0.00 | 0.00 | 1017.0 | |
| 20260502220555 | 0 | 26 | 3.0 | 3.0 | 0.00 | 0.00 | 0.00 | 1017.0 | |
| 20260502220052 | 0 | 151 | 1.0 | 1.0 | 0.00 | 0.00 | 0.00 | 1017.0 | |
| 20260502215550 | 0 | 340 | 4.0 | 5.0 | 0.00 | 0.00 | 0.00 | 1016.8 | |
| 20260502215046 | 0 | 68 | 2.0 | 2.0 | 0.00 | 0.00 | 0.00 | 1017.2 | |
| 20260502214543 | 0 | 128 | 2.0 | 3.0 | 0.00 | 0.00 | 0.00 | 1017.1 | |
| 20260502214041 | 0 | 308 | 8.0 | 11.0 | 0.00 | 0.00 | 0.00 | 1016.9 | |
| 20260502213537 | 0 | 181 | 3.0 | 3.0 | 0.00 | 0.00 | 0.00 | 1016.9 | |
| 20260502213035 | 0 | 267 | 5.0 | 7.0 | 0.00 | 0.00 | 0.00 | 1016.8 | |
| 20260502212534 | 0 | 163 | 1.0 | 1.0 | 0.00 | 0.00 | 0.00 | 1016.7 | |
| 20260502212031 | 0 | 193 | 5.0 | 6.0 | 0.00 | 0.00 | 0.00 | 1016.9 | |
| 20260502211527 | 0 | 180 | 2.0 | 3.0 | 0.00 | 0.00 | 0.00 | 1016.8 | |
| 20260502211024 | 0 | 204 | 3.0 | 3.0 | 0.00 | 0.00 | 0.00 | 1016.8 | |
| 20260502210521 | 0 | 154 | 1.0 | 2.0 | 0.00 | 0.00 | 0.00 | 1017.0 | |
| 20260502210018 | 0 | 302 | 3.0 | 3.0 | 0.00 | 0.00 | 0.00 | 1016.9 | |
| 20260502205515 | 0 | 292 | 3.0 | 6.0 | 0.00 | 0.00 | 0.00 | 1016.7 | |
| 20260502205012 | 0 | 97 | 1.0 | 2.0 | 0.00 | 0.00 | 0.00 | 1016.9 | |
| 20260502204509 | 0 | 255 | 3.0 | 5.0 | 0.00 | 0.00 | 0.00 | 1016.7 | |
| 20260502204007 | 0 | 4 | 4.0 | 8.0 | 0.00 | 0.00 | 0.00 | 1016.8 | |
| 20260502203503 | 0 | 282 | 4.0 | 7.0 | 0.00 | 0.00 | 0.00 | 1016.9 | |
| 20260502203000 | 0 | 229 | 5.0 | 6.0 | 0.00 | 0.00 | 0.00 | 1016.9 | |
| 20260502202456 | 0 | 54 | 3.0 | 5.0 | 0.00 | 0.00 | 0.00 | 1016.9 | |
| 20260502201955 | 0 | 177 | 2.0 | 3.0 | 0.00 | 0.00 | 0.00 | 1016.8 | |
| 20260502201450 | 0 | 174 | 1.0 | 2.0 | 0.00 | 0.00 | 0.00 | 1016.7 | |
| 20260502200947 | 0 | 54 | 3.0 | 3.0 | 0.00 | 0.00 | 0.00 | 1016.9 |